| time (UTC) | temp F | wind direction | speed MPH | gust MPH | rain 1hr in | rain 24hr in | rain mn in | humidity % | barometer mb |
| 20260508141558 | 59 | 221 | 0.0 | 2.0 | 0.00 | 0.02 | 0.01 | 74 | 1018.5 |
| 20260508140054 | 56 | 220 | 1.0 | 3.0 | 0.00 | 0.03 | 0.01 | 88 | 1018.4 |
| 20260508134538 | 53 | 237 | 0.0 | 3.0 | 0.00 | 0.03 | 0.01 | 95 | 1018.3 |
| 20260508133040 | 52 | 10 | 0.0 | 2.0 | 0.00 | 0.03 | 0.01 | 96 | 1018.2 |
| 20260508131530 | 51 | 223 | 0.0 | 3.0 | 0.00 | 0.03 | 0.01 | 96 | 1018.2 |
| 20260508130028 | 49 | 10 | 0.0 | 1.0 | 0.00 | 0.04 | 0.01 | 96 | 1018.3 |
| 20260508124524 | 47 | 226 | 0.0 | 0.0 | 0.00 | 0.04 | 0.01 | 96 | 1018.2 |
| 20260508123025 | 47 | 226 | 0.0 | 1.0 | 0.00 | 0.04 | 0.01 | 96 | 1018.1 |
| 20260508121524 | 45 | 10 | 0.0 | 1.0 | 0.00 | 0.04 | 0.01 | 95 | 1018.0 |
| 20260508120022 | 44 | 10 | 0.0 | 2.0 | 0.00 | 0.04 | 0.01 | 95 | 1017.9 |
| 20260508114528 | 42 | 10 | 0.0 | 1.0 | 0.00 | 0.04 | 0.01 | 94 | 1017.9 |
| 20260508113014 | 41 | 10 | 0.0 | 2.0 | 0.00 | 0.04 | 0.01 | 94 | 1017.6 |
| 20260508111512 | 41 | 10 | 0.0 | 0.0 | 0.00 | 0.04 | 0.01 | 94 | 1017.2 |
| 20260508110008 | 40 | 10 | 0.0 | 0.0 | 0.00 | 0.04 | 0.01 | 94 | 1016.8 |
| 20260508104506 | 41 | 10 | 0.0 | 0.0 | 0.00 | 0.04 | 0.01 | 94 | 1016.7 |
| 20260508103004 | 41 | 10 | 0.0 | 0.0 | 0.01 | 0.04 | 0.01 | 94 | 1016.5 |
| 20260508101503 | 41 | 227 | 0.0 | 0.0 | 0.01 | 0.04 | 0.01 | 94 | 1016.1 |
| 20260508100100 | 42 | 227 | 0.0 | 1.0 | 0.01 | 0.05 | 0.01 | 94 | 1016.0 |
| 20260508094557 | 42 | 227 | 0.0 | 1.0 | 0.01 | 0.05 | 0.01 | 94 | 1015.7 |
| 20260508093056 | 43 | 10 | 0.0 | 1.0 | 0.00 | 0.04 | 0.00 | 94 | 1015.7 |
| 20260508091553 | 43 | 10 | 0.0 | 0.0 | 0.00 | 0.04 | 0.00 | 94 | 1015.6 |
| 20260508090052 | 44 | 10 | 0.0 | 0.0 | 0.00 | 0.04 | 0.00 | 94 | 1015.5 |
| 20260508084549 | 44 | 10 | 0.0 | 0.0 | 0.00 | 0.04 | 0.00 | 94 | 1015.2 |
| 20260508083047 | 44 | 10 | 0.0 | 0.0 | 0.00 | 0.04 | 0.00 | 94 | 1015.1 |
| 20260508081545 | 45 | 10 | 0.0 | 0.0 | 0.00 | 0.04 | 0.00 | 94 | 1015.0 |
| 20260508080043 | 45 | 10 | 0.0 | 2.0 | 0.00 | 0.04 | 0.00 | 93 | 1014.8 |
| 20260508074540 | 46 | 10 | 1.0 | 2.0 | 0.00 | 0.04 | 0.00 | 94 | 1014.7 |
| 20260508073040 | 46 | 226 | 0.0 | 1.0 | 0.00 | 0.04 | 0.00 | 94 | 1014.6 |
| 20260508071539 | 47 | 10 | 0.0 | 0.0 | 0.00 | 0.04 | 0.00 | 94 | 1014.4 |
| 20260508070037 | 47 | 10 | 0.0 | 1.0 | 0.00 | 0.05 | 0.00 | 94 | 1014.3 |
| 20260508064555 | 48 | 10 | 0.0 | 0.0 | 0.00 | 0.05 | 0.00 | 94 | 1014.3 |
| 20260508063033 | 48 | 10 | 0.0 | 1.0 | 0.00 | 0.05 | 0.00 | 94 | 1014.4 |
| 20260508061532 | 48 | 225 | 0.0 | 4.0 | 0.00 | 0.05 | 0.00 | 94 | 1014.5 |
| 20260508060037 | 47 | 240 | 0.0 | 1.0 | 0.00 | 0.05 | 0.00 | 93 | 1014.2 |
| 20260508054548 | 47 | 10 | 0.0 | 2.0 | 0.00 | 0.05 | 0.00 | 93 | 1014.2 |
| 20260508053029 | 47 | 10 | 0.0 | 1.0 | 0.00 | 0.05 | 0.00 | 93 | 1014.1 |
| 20260508051530 | 47 | 241 | 0.0 | 0.0 | 0.00 | 0.05 | 0.00 | 93 | 1014.2 |
| 20260508050034 | 47 | 10 | 0.0 | 1.0 | 0.00 | 0.07 | 0.00 | 93 | 1013.9 |
| 20260508044525 | 48 | 10 | 0.0 | 0.0 | 0.00 | 0.07 | 0.00 | 92 | 1013.7 |
| 20260508043030 | 48 | 10 | 0.0 | 0.0 | 0.00 | 0.07 | 0.00 | 92 | 1013.7 |
| 20260508041521 | 49 | 10 | 0.0 | 0.0 | 0.00 | 0.07 | 0.00 | 92 | 1013.6 |
| 20260508040016 | 49 | 240 | 0.0 | 0.0 | 0.00 | 0.11 | 0.07 | 92 | 1013.6 |
| 20260508034522 | 50 | 10 | 0.0 | 0.0 | 0.00 | 0.11 | 0.07 | 92 | 1013.5 |
| 20260508033014 | 50 | 240 | 0.0 | 0.0 | 0.00 | 0.11 | 0.07 | 92 | 1013.4 |
| 20260508031511 | 51 | 10 | 0.0 | 0.0 | 0.00 | 0.11 | 0.07 | 92 | 1013.3 |
| 20260508030009 | 51 | 241 | 0.0 | 0.0 | 0.00 | 0.11 | 0.07 | 92 | 1013.1 |
| 20260508024510 | 52 | 240 | 0.0 | 0.0 | 0.00 | 0.11 | 0.07 | 92 | 1012.9 |
| 20260508023004 | 52 | 241 | 0.0 | 1.0 | 0.00 | 0.11 | 0.07 | 92 | 1012.8 |
| 20260508021502 | 53 | 241 | 0.0 | 0.0 | 0.00 | 0.11 | 0.07 | 92 | 1012.4 |
| 20260508020058 | 54 | 241 | 0.0 | 0.0 | 0.00 | 0.11 | 0.07 | 92 | 1012.1 |
| 20260508014555 | 55 | 241 | 0.0 | 1.0 | 0.00 | 0.11 | 0.07 | 92 | 1011.9 |
| 20260508013053 | 55 | 10 | 0.0 | 2.0 | 0.00 | 0.11 | 0.07 | 92 | 1011.8 |
| 20260508011556 | 56 | 241 | 0.0 | 1.0 | 0.00 | 0.11 | 0.07 | 92 | 1011.7 |
| 20260508010051 | 56 | 241 | 0.0 | 0.0 | 0.00 | 0.11 | 0.07 | 92 | 1011.9 |
| 20260508004550 | 56 | 241 | 0.0 | 0.0 | 0.00 | 0.11 | 0.07 | 92 | 1011.9 |
| 20260508003050 | 56 | 241 | 0.0 | 0.0 | 0.00 | 0.11 | 0.07 | 92 | 1011.8 |
| 20260508001550 | 57 | 241 | 0.0 | 1.0 | 0.00 | 0.11 | 0.07 | 91 | 1011.4 |
| 20260508000106 | 57 | 241 | 0.0 | 2.0 | 0.00 | 0.11 | 0.07 | 91 | 1011.1 |
| 20260507234549 | 57 | 241 | 0.0 | 1.0 | 0.00 | 0.11 | 0.07 | 91 | 1010.9 |
| 20260507233048 | 57 | 242 | 0.0 | 2.0 | 0.00 | 0.11 | 0.07 | 91 | 1010.8 |
| 20260507231553 | 57 | 242 | 0.0 | 1.0 | 0.00 | 0.11 | 0.07 | 91 | 1010.5 |
| 20260507230047 | 57 | 242 | 0.0 | 2.0 | 0.00 | 0.11 | 0.07 | 91 | 1010.3 |
| 20260507224550 | 57 | 250 | 0.0 | 0.0 | 0.00 | 0.11 | 0.07 | 91 | 1010.4 |
| 20260507223046 | 57 | 250 | 0.0 | 0.0 | 0.00 | 0.11 | 0.07 | 91 | 1010.5 |
| 20260507221545 | 57 | 250 | 0.0 | 0.0 | 0.00 | 0.11 | 0.07 | 91 | 1010.4 |
| 20260507220045 | 57 | 250 | 0.0 | 0.0 | 0.00 | 0.11 | 0.07 | 91 | 1010.5 |
| 20260507214546 | 56 | 250 | 0.0 | 2.0 | 0.00 | 0.11 | 0.07 | 91 | 1010.3 |
| 20260507213045 | 56 | 250 | 0.0 | 1.0 | 0.00 | 0.11 | 0.07 | 91 | 1010.4 |
| 20260507211551 | 56 | 250 | 0.0 | 2.0 | 0.00 | 0.11 | 0.07 | 91 | 1010.3 |
| 20260507210049 | 57 | 248 | 0.0 | 2.0 | 0.00 | 0.11 | 0.07 | 92 | 1010.1 |
| 20260507204542 | 56 | 249 | 0.0 | 2.0 | 0.00 | 0.11 | 0.07 | 92 | 1010.3 |
| 20260507203041 | 56 | 249 | 0.0 | 2.0 | 0.00 | 0.11 | 0.07 | 92 | 1010.5 |
| 20260507201540 | 56 | 250 | 0.0 | 4.0 | 0.00 | 0.11 | 0.07 | 92 | 1010.2 |
| 20260507200041 | 56 | 337 | 0.0 | 4.0 | 0.00 | 0.11 | 0.07 | 92 | 1010.6 |
| 20260507194540 | 56 | 331 | 0.0 | 2.0 | 0.01 | 0.11 | 0.07 | 93 | 1010.7 |
| 20260507193039 | 57 | 327 | 1.0 | 3.0 | 0.01 | 0.11 | 0.07 | 93 | 1010.4 |
| 20260507191538 | 57 | 352 | 1.0 | 3.0 | 0.01 | 0.11 | 0.07 | 93 | 1010.6 |
| 20260507190039 | 57 | 352 | 0.0 | 2.0 | 0.01 | 0.11 | 0.07 | 93 | 1010.7 |
| 20260507184536 | 57 | 352 | 0.0 | 2.0 | 0.00 | 0.10 | 0.06 | 93 | 1010.8 |
| 20260507183036 | 56 | 353 | 0.0 | 3.0 | 0.00 | 0.10 | 0.06 | 94 | 1010.7 |
| 20260507181535 | 56 | 329 | 0.0 | 2.0 | 0.00 | 0.10 | 0.06 | 94 | 1010.7 |
| 20260507180034 | 56 | 212 | 0.0 | 4.0 | 0.00 | 0.10 | 0.06 | 94 | 1010.6 |
| 20260507174546 | 56 | 309 | 0.0 | 2.0 | 0.00 | 0.10 | 0.06 | 94 | 1010.7 |
| 20260507173033 | 56 | 339 | 1.0 | 3.0 | 0.00 | 0.10 | 0.06 | 94 | 1010.7 |
| 20260507171541 | 56 | 120 | 0.0 | 4.0 | 0.00 | 0.10 | 0.06 | 94 | 1010.6 |
| 20260507170030 | 56 | 15 | 0.0 | 3.0 | 0.00 | 0.10 | 0.06 | 94 | 1010.3 |
| 20260507164528 | 56 | 51 | 1.0 | 5.0 | 0.00 | 0.10 | 0.06 | 94 | 1010.8 |
| 20260507163027 | 56 | 310 | 0.0 | 4.0 | 0.00 | 0.10 | 0.06 | 94 | 1011.0 |
| 20260507161527 | 56 | 98 | 1.0 | 2.0 | 0.00 | 0.10 | 0.06 | 94 | 1010.8 |
| 20260507160030 | 57 | 190 | 0.0 | 4.0 | 0.00 | 0.11 | 0.06 | 95 | 1010.8 |
| 20260507154522 | 57 | 337 | 1.0 | 4.0 | 0.00 | 0.11 | 0.06 | 94 | 1011.0 |
| 20260507153025 | 57 | 332 | 0.0 | 3.0 | 0.00 | 0.11 | 0.06 | 94 | 1010.8 |
| 20260507151516 | 59 | 333 | 1.0 | 3.0 | 0.00 | 0.11 | 0.06 | 95 | 1011.0 |
| 20260507150012 | 60 | 298 | 1.0 | 4.0 | 0.00 | 0.11 | 0.06 | 95 | 1010.8 |
| 20260507144508 | 62 | 356 | 2.0 | 4.0 | 0.00 | 0.11 | 0.06 | 96 | 1010.1 |
| 20260507143007 | 62 | 158 | 0.0 | 0.0 | 0.00 | 0.11 | 0.06 | 96 | 1009.3 |